{"data":{"norad_id":69890,"epoch":"2026-09-19T10:45:00.796032Z","epoch_age_seconds":112556,"freshness":"FRESH","line1":"1 69890U 26156X   26262.44792588  .00000611  00000+0  65463-4 0  9992","line2":"2 69890  97.7458 161.6957 0004942 274.1532  85.9122 14.92223315 11058","mean_motion":14.92223315,"eccentricity":0.0004942,"inclination_deg":97.7458,"raan_deg":161.6957,"arg_perigee_deg":274.1532,"mean_anomaly_deg":85.9122,"bstar":6.5463e-5,"rev_number":1105,"period_min":96.500301632132,"perigee_km":587.56053272122,"apogee_km":594.44883236024,"semimajor_km":6969.1416825407,"source":"CELESTRAK","updated_at":"2026-09-20T09:00:25.168416Z"}}